Date String (YYYY-MM-DD hh:mm:ss) UTC,Instrument flags,absolute air pressure of the measurement (hPa),sample flow rate (lpm),inlet stack bypass flow (lpm),air temperature of the measurement (°C),ambient temperature measured by the external sensor (°C),aerosol sample conditioner tube jacket temperature (°C),OPC LED temperature (°C),internal box temperature (°C),relative humidity of the measurement (%),span deviation,mass concentration of particles derived from Lorenz-Mie calculation of OPC scattering (μg/m³),mass concentration of particles derived from Lorenz-Mie calculation of OPC scattering (μg/m³),mass concentration of particles derived from Lorenz-Mie calculation of OPC scattering (μg/m³)
DateTimeUTC,F1_M11,P_M11,Q1_M11,Q2_M11,T1_M11,T2_M11,T3_M11,T4_M11,T5_M11,U1_M11,ZSPAN_M11,X0_M11,X2_M11,X1_M11
2024-03-10 08:00:00,SystemResetWarning,0828.6,5.00,000.00,018.5,017.9,000.0,027.0,020.1,07.3,0000.0,0007.58,0002.23,0001.22
2024-03-10 08:01:00,SystemResetWarning,0828.6,5.01,000.00,018.5,017.8,000.0,027.0,020.1,07.4,0000.0,0007.50,0002.19,0001.22
2024-03-10 08:02:00,SystemResetWarning,0828.6,5.01,000.00,018.5,017.6,000.0,027.0,020.0,07.4,0000.0,0006.88,0002.20,0001.22
2024-03-10 08:03:00,SystemResetWarning,0828.6,4.99,000.00,018.4,017.6,000.0,027.0,020.0,07.5,0000.0,0005.50,0002.16,0001.22
2024-03-10 08:04:00,SystemResetWarning,0828.5,5.00,000.00,018.4,017.5,000.0,027.0,020.0,07.4,0000.0,0005.26,0002.05,0001.22
2024-03-10 08:05:00,SystemResetWarning,0828.6,5.00,000.00,018.4,017.4,000.0,027.0,020.0,07.5,0000.0,0005.20,0002.02,0001.21
2024-03-10 08:06:00,SystemResetWarning,0828.6,4.99,000.00,018.4,017.4,000.0,027.0,020.0,07.5,0000.0,0005.07,0002.01,0001.21
2024-03-10 08:07:00,SystemResetWarning,0828.6,4.99,000.00,018.3,017.4,000.0,027.0,020.0,07.6,0000.0,0004.27,0002.01,0001.21
2024-03-10 08:08:00,SystemResetWarning,0828.6,5.00,000.00,018.3,017.3,000.0,027.0,020.0,07.6,0000.0,0003.88,0002.01,0001.19
2024-03-10 08:09:00,SystemResetWarning,0828.6,5.00,000.00,018.3,017.3,000.0,027.0,020.0,07.7,0000.0,0003.88,0002.02,0001.18
2024-03-10 08:10:00,SystemResetWarning,0828.6,5.00,000.00,018.3,017.2,000.0,027.0,020.0,07.7,0000.0,0003.77,0002.03,0001.18
2024-03-10 08:11:00,SystemResetWarning,0828.6,5.00,000.00,018.3,017.2,000.0,027.0,020.0,07.7,0000.0,0003.92,0001.97,0001.17
2024-03-10 08:12:00,SystemResetWarning,0828.6,5.00,000.00,018.3,017.2,000.0,027.0,020.0,07.8,0000.0,0005.41,0002.01,0001.18
2024-03-10 08:13:00,SystemResetWarning,0828.6,4.99,000.00,018.3,017.2,000.0,027.0,020.0,07.8,0000.0,0006.12,0001.93,0001.17
2024-03-10 08:14:00,SystemResetWarning,0828.6,5.00,000.00,018.3,017.2,000.0,027.0,020.0,07.7,0000.0,0006.57,0001.95,0001.16
2024-03-10 08:15:00,SystemResetWarning,0828.6,5.00,000.00,018.3,017.2,000.0,027.0,020.0,07.8,0000.0,0007.01,0001.97,0001.16
2024-03-10 08:16:00,SystemResetWarning,0828.6,5.00,000.00,018.3,017.1,000.0,027.0,020.0,07.9,0000.0,0007.58,0001.99,0001.17
2024-03-10 08:17:00,SystemResetWarning,0828.6,5.00,000.00,018.3,017.1,000.0,027.0,020.0,07.9,0000.0,0007.71,0002.04,0001.16
2024-03-10 08:18:00,SystemResetWarning,0828.6,5.00,000.00,018.3,017.1,000.0,027.0,020.0,08.2,0000.0,0008.28,0002.07,0001.17
2024-03-10 08:19:00,SystemResetWarning,0828.6,5.00,000.00,018.3,017.1,000.0,027.0,020.0,08.9,0000.0,0008.48,0002.09,0001.18
2024-03-10 08:20:00,SystemResetWarning,0828.7,5.00,000.00,018.3,017.1,000.0,027.0,020.0,08.9,0000.0,0008.43,0002.06,0001.18
2024-03-10 08:21:00,SystemResetWarning,0828.6,5.00,000.00,018.3,017.1,000.0,027.0,020.0,08.9,0000.0,0008.91,0002.08,0001.18
2024-03-10 08:22:00,SystemResetWarning,0828.7,5.00,000.00,018.3,017.1,000.0,027.0,020.0,08.9,0000.0,0009.52,0002.17,0001.19
2024-03-10 08:23:00,SystemResetWarning,0828.6,5.00,000.00,018.3,017.2,000.0,027.0,020.0,08.8,0000.0,0008.85,0002.13,0001.18
2024-03-10 08:24:00,SystemResetWarning,0828.6,5.01,000.00,018.3,017.2,000.0,027.0,020.0,08.8,0000.0,0008.65,0002.20,0001.18
2024-03-10 08:25:00,SystemResetWarning,0828.7,5.00,000.00,018.3,017.2,000.0,027.0,020.0,09.1,0000.0,0008.66,0002.19,0001.18
2024-03-10 08:26:00,SystemResetWarning,0828.7,5.00,000.00,018.3,017.2,000.0,026.9,020.0,09.1,0000.0,0008.86,0002.16,0001.18
2024-03-10 08:27:00,SystemResetWarning,0828.7,5.00,000.00,018.3,017.3,000.0,026.9,020.0,09.2,0000.0,0008.54,0002.19,0001.17
2024-03-10 08:28:00,SystemResetWarning,0828.7,5.01,000.00,018.3,017.3,000.0,026.9,020.0,09.2,0000.0,0008.61,0002.21,0001.17
2024-03-10 08:29:00,SystemResetWarning,0828.6,5.00,000.00,018.2,017.3,000.0,026.9,020.0,09.2,0000.0,0008.15,0002.23,0001.17
2024-03-10 08:30:00,SystemResetWarning,0828.6,4.99,000.00,018.3,017.3,000.0,026.9,020.0,09.2,0000.0,0007.93,0002.24,0001.18
2024-03-10 08:31:00,SystemResetWarning,0828.6,5.00,000.00,018.3,017.3,000.0,026.9,020.0,09.3,0000.0,0008.11,0002.33,0001.18
2024-03-10 08:32:00,SystemResetWarning,0828.6,4.99,000.00,018.2,017.3,000.0,026.9,020.0,09.1,0000.0,0008.16,0002.35,0001.18
2024-03-10 08:33:00,SystemResetWarning,0828.6,4.99,000.00,018.2,017.3,000.0,026.9,020.0,09.2,0000.0,0007.22,0002.26,0001.16
2024-03-10 08:34:00,SystemResetWarning,0828.6,5.00,000.00,018.2,017.3,000.0,026.9,020.0,09.3,0000.0,0006.83,0002.24,0001.16
2024-03-10 08:35:00,SystemResetWarning,0828.6,5.00,000.00,018.2,017.3,000.0,026.9,020.0,09.4,0000.0,0006.51,0002.21,0001.15
2024-03-10 08:36:00,SystemResetWarning,0828.6,5.00,000.00,018.2,017.3,000.0,026.9,020.0,09.4,0000.0,0006.16,0002.17,0001.15
2024-03-10 08:37:00,SystemResetWarning,0828.6,5.00,000.00,018.2,017.3,000.0,026.9,020.0,09.4,0000.0,0005.18,0002.23,0001.17
2024-03-10 08:38:00,SystemResetWarning,0828.6,5.00,000.00,018.2,017.3,000.0,026.9,020.0,09.3,0000.0,0005.08,0002.18,0001.18
2024-03-10 08:39:00,SystemResetWarning,0828.6,5.01,000.00,018.2,017.3,000.0,026.9,020.0,09.3,0000.0,0005.56,0002.07,0001.18
2024-03-10 08:40:00,SystemResetWarning,0828.6,5.00,000.00,018.2,017.3,000.0,026.9,020.0,09.3,0000.0,0005.34,0002.02,0001.18
2024-03-10 08:41:00,SystemResetWarning,0828.6,5.00,000.00,018.2,017.3,000.0,026.9,020.0,09.3,0000.0,0005.27,0001.98,0001.18
2024-03-10 08:42:00,SystemResetWarning,0828.6,4.99,000.00,018.2,017.3,000.0,026.9,020.0,09.3,0000.0,0004.96,0001.89,0001.19
2024-03-10 08:43:00,SystemResetWarning,0828.6,4.99,000.00,018.2,017.3,000.0,026.9,020.0,09.2,0000.0,0004.09,0001.82,0001.22
2024-03-10 08:44:00,SystemResetWarning,0828.6,5.00,000.00,018.2,017.3,000.0,026.9,020.0,09.4,0000.0,0004.12,0001.86,0001.26
2024-03-10 08:45:00,SystemResetWarning,0828.6,5.00,000.00,018.2,017.3,000.0,026.9,020.0,09.4,0000.0,0004.31,0001.93,0001.31
2024-03-10 08:46:00,SystemResetWarning,0828.6,5.00,000.00,018.2,017.3,000.0,026.9,020.0,09.4,0000.0,0004.35,0001.98,0001.36
2024-03-10 08:47:00,SystemResetWarning,0828.6,5.01,000.00,018.2,017.3,000.0,026.9,020.0,09.4,0000.0,0004.41,0002.03,0001.39
2024-03-10 08:48:00,SystemResetWarning,0828.5,5.00,000.00,018.2,017.3,000.0,026.9,020.0,09.4,0000.0,0004.54,0002.01,0001.40
2024-03-10 08:49:00,SystemResetWarning,0828.6,5.00,000.00,018.2,017.3,000.0,026.9,020.0,09.4,0000.0,0005.87,0002.12,0001.43
2024-03-10 08:50:00,SystemResetWarning,0828.6,5.00,000.00,018.2,017.3,000.0,026.9,020.0,09.5,0000.0,0005.14,0002.20,0001.45
2024-03-10 08:51:00,SystemResetWarning,0828.6,5.00,000.00,018.2,017.3,000.0,026.9,020.0,09.6,0000.0,0005.54,0002.29,0001.49
2024-03-10 08:52:00,SystemResetWarning,0828.6,5.00,000.00,018.2,017.4,000.0,026.9,020.1,09.6,0000.0,0006.07,0002.36,0001.53
2024-03-10 08:53:00,SystemResetWarning,0828.6,5.00,000.00,018.4,018.1,000.0,027.0,020.5,09.5,0000.0,0006.38,0002.40,0001.56
2024-03-10 08:54:00,SystemResetWarning,0828.6,4.99,000.00,018.6,018.8,000.0,027.1,020.8,09.4,0000.0,0006.64,0002.47,0001.58
2024-03-10 08:55:00,SystemResetWarning,0828.6,5.00,000.00,018.7,018.7,000.0,027.0,020.8,09.4,0000.0,0006.70,0002.50,0001.58
2024-03-10 08:56:00,SystemResetWarning,0828.5,5.00,000.00,018.7,018.6,000.0,027.0,020.6,09.5,0000.0,0006.69,0002.49,0001.55
2024-03-10 08:57:00,SystemResetWarning,0828.6,5.01,000.00,018.7,018.4,000.0,027.0,020.5,09.5,0000.0,0006.72,0002.48,0001.55
2024-03-10 08:58:00,SystemResetWarning,0828.6,5.00,000.00,018.6,018.3,000.0,027.0,020.4,09.5,0000.0,0006.70,0002.48,0001.55
2024-03-10 08:59:00,SystemResetWarning,0828.6,5.00,000.00,018.6,018.2,000.0,027.0,020.3,09.5,0000.0,0007.19,0002.53,0001.55
